This demonstration page uses our WeatherBlox Daily Observations layout. Learn more.

Left ArrowRight Arrow

Hourly Observations for July 2, 2015

Temp ( °F °C ) Dew Point ( °F °C ) Humidity (%) Winds ( mph kmh ) Pressure ( in mb ) Visibility ( mi km ) Precip ( " mm )
12:51 am 00:51 Clear 82 27.8 58 14.4 44 44 NW 13 20 29.79 1009 10 16.0934 N/A
1:51 am 01:51 Clear 81 27.2 58 14.4 45 45 NW 14 22 29.79 1009 10 16.0934 N/A
2:51 am 02:51 Clear 80 26.7 58 14.4 47 47 WNW 10 17 29.79 1009 10 16.0934 N/A
3:51 am 03:51 Clear 78 25.6 58 14.4 50 50 NW 10 17 29.79 1009 10 16.0934 N/A
4:51 am 04:51 Clear 78 25.6 59 15 52 52 NNW 10 17 29.79 1009 10 16.0934 N/A
5:51 am 05:51 Sunny 78 25.6 59 15 52 52 WNW 8 13 29.8 1009 10 16.0934 N/A
6:51 am 06:51 Sunny 82 27.8 59 15 46 46 NW 14 22 29.81 1010 10 16.0934 N/A
7:51 am 07:51 Sunny 86 30 59 15 40 40 WNW 17 28 29.82 1010 10 16.0934 N/A
8:51 am 08:51 Sunny 89 31.7 59 15 36 36 WNW 16 26 29.81 1010 10 16.0934 N/A
9:51 am 09:51 Sunny 92 33.3 58 14.4 32 32 W 18 30 29.8 1009 10 16.0934 N/A
10:51 am 10:51 Sunny 86 30 77 25 75 75 WNW 20 31 30.1 1019 10 16.0934 N/A
11:51 am 11:51 Sunny 87 30.6 71 21.7 59 59 NW 18 30 29.97 1015 10 16.0934 N/A
12:51 pm 12:51 Sunny 87 30.6 34 1.1 15 15 NNW 12 19 29.91 1013 10 16.0934 N/A
1:51 pm 13:51 Sunny 103 39.4 51 10.6 18 18 WNW 21 33 29.68 1005 10 16.0934 N/A
2:51 pm 14:51 Sunny 103 39.4 52 11.1 18 18 W 18 30 29.66 1004 10 16.0934 N/A
3:51 pm 15:51 Sunny 103 39.4 53 11.7 19 19 WNW 18 30 29.64 1004 10 16.0934 N/A
4:51 pm 16:51 Sunny 102 38.9 53 11.7 19 19 WNW 22 35 29.62 1003 10 16.0934 N/A
5:51 pm 17:51 Sunny 100 37.8 53 11.7 21 21 WNW 22 35 29.61 1003 10 16.0934 N/A
6:13 pm 18:13 Sunny with Nearby Thunderstorms 100 37.8 54 12.2 21 21 WNW 20 31 29.5 999 10 16.0934 N/A
6:51 pm 18:51 Partly Cloudy with Thunderstorms 93 33.9 58 14.4 31 31 undefined N/A 29.68 1005 10 16.0934 N/A
7:10 pm 19:10 Mostly Cloudy 53 11.7 52 11.1 96 96 VRB 5 7 30.27 1025 10 16.0934 N/A
7:36 pm 19:36 Mostly Cloudy with Nearby Thunderstorms 95 35 55 12.8 26 26 WNW 14 22 29.59 1002 10 16.0934 N/A
7:48 pm 19:48 Mostly Cloudy with Thunderstorms 95 35 54 12 25 25 NW 12 19 29.59 1002 10 16.0934 N/A
7:51 pm 19:51 Mostly Cloudy with Thunderstorms 94 34.4 54 12.2 26 26 NNW 10 17 29.69 1006 10 16.0934 N/A
8:09 pm 20:09 Partly Cloudy with Nearby Thunderstorms 91 32.8 57 13.9 32 32 N 17 28 29.65 1004 10 16.0934 N/A
8:17 pm 20:17 Mostly Clear with Nearby Thunderstorms 91 32.8 58 14.4 33 33 NNE 22 35 29.65 1004 10 16.0934 N/A
8:34 pm 20:34 Mostly Clear 90 32.2 56 13.3 32 32 N 17 28 29.68 1005 10 16.0934 N/A
8:51 pm 20:51 Clear 90 32.2 53 11.7 28 28 NNW 12 19 29.71 1006 10 16.0934 N/A
9:51 pm 21:51 Clear 91 32.8 55 12.8 30 30 WNW 18 30 29.69 1005 10 16.0934 N/A
10:51 pm 22:51 Clear 89 31.7 55 12.8 31 31 NW 18 30 29.68 1005 10 16.0934 N/A
11:51 pm 23:51 Clear 87 30.6 56 13.3 35 35 WNW 17 28 29.7 1006 10 16.0934 N/A

Powered by AerisWeather